| time (UTC) | temp F | wind direction | speed MPH | gust MPH | rain 1hr in | rain 24hr in | rain mn in | humidity % | barometer mb |
| 20260510085847 | 50 | 195 | 3.0 | 8.0 | 0.00 | 0.13 | 0.01 | 94 | 1010.8 |
| 20260510084847 | 50 | 215 | 5.0 | 10.0 | 0.00 | 0.13 | 0.01 | 95 | 1010.8 |
| 20260510083847 | 49 | 207 | 6.0 | 8.0 | 0.00 | 0.13 | 0.01 | 95 | 1010.7 |
| 20260510082847 | 49 | 203 | 5.0 | 8.0 | 0.00 | 0.13 | 0.01 | 95 | 1010.7 |
| 20260510081846 | 49 | 215 | 5.0 | 6.0 | 0.00 | 0.13 | 0.01 | 96 | 1010.6 |
| 20260510080846 | 48 | 189 | 4.0 | 4.0 | 0.00 | 0.13 | 0.01 | 96 | 1010.4 |
| 20260510075846 | 48 | 171 | 4.0 | 5.0 | 0.00 | 0.13 | 0.01 | 95 | 1010.1 |
| 20260510074846 | 48 | 169 | 4.0 | 5.0 | 0.00 | 0.13 | 0.01 | 95 | 1010.1 |
| 20260510073846 | 49 | 174 | 3.0 | 6.0 | 0.00 | 0.13 | 0.01 | 95 | 1010.4 |
| 20260510072846 | 48 | 209 | 3.0 | 6.0 | 0.00 | 0.13 | 0.01 | 95 | 1010.4 |
| 20260510071845 | 48 | 216 | 4.0 | 7.0 | 0.00 | 0.13 | 0.01 | 95 | 1010.1 |
| 20260510070845 | 48 | 217 | 5.0 | 7.0 | 0.00 | 0.13 | 0.01 | 95 | 1010.0 |
| 20260510065845 | 48 | 204 | 6.0 | 8.0 | 0.00 | 0.13 | 0.01 | 95 | 1010.0 |
| 20260510063845 | 48 | 192 | 4.0 | 8.0 | 0.00 | 0.13 | 0.01 | 94 | 1009.7 |
| 20260510062845 | 49 | 217 | 3.0 | 10.0 | 0.00 | 0.13 | 0.01 | 94 | 1009.9 |
| 20260510061844 | 49 | 206 | 6.0 | 9.0 | 0.00 | 0.13 | 0.01 | 94 | 1010.2 |
| 20260510060844 | 49 | 206 | 6.0 | 9.0 | 0.00 | 0.13 | 0.01 | 95 | 1010.4 |
| 20260510055844 | 48 | 195 | 5.0 | 7.0 | 0.00 | 0.13 | 0.01 | 95 | 1010.0 |
| 20260510054844 | 49 | 180 | 4.0 | 6.0 | 0.00 | 0.13 | 0.01 | 96 | 1010.1 |
| 20260510053844 | 49 | 188 | 5.0 | 8.0 | 0.00 | 0.13 | 0.01 | 96 | 1010.2 |
| 20260510052843 | 49 | 192 | 4.0 | 5.0 | 0.00 | 0.13 | 0.01 | 96 | 1010.4 |
| 20260510051843 | 49 | 192 | 4.0 | 7.0 | 0.00 | 0.13 | 0.01 | 95 | 1010.1 |
| 20260510050843 | 49 | 198 | 5.0 | 9.0 | 0.01 | 0.13 | 0.01 | 96 | 1010.2 |
| 20260510045843 | 49 | 193 | 6.0 | 7.0 | 0.02 | 0.13 | 0.01 | 96 | 1010.2 |
| 20260510044843 | 49 | 182 | 5.0 | 11.0 | 0.03 | 0.13 | 0.01 | 96 | 1009.9 |
| 20260510043843 | 49 | 165 | 5.0 | 8.0 | 0.04 | 0.13 | 0.01 | 96 | 1009.9 |
| 20260510042843 | 49 | 173 | 5.0 | 9.0 | 0.05 | 0.13 | 0.01 | 96 | 1010.0 |
| 20260510041842 | 50 | 162 | 6.0 | 9.0 | 0.06 | 0.13 | 0.01 | 96 | 1010.5 |
| 20260510040912 | 50 | 183 | 6.0 | 10.0 | 0.06 | 0.12 | 0.00 | 96 | 1010.7 |
| 20260510035912 | 50 | 159 | 6.0 | 9.0 | 0.06 | 0.11 | 0.11 | 95 | 1010.7 |
| 20260510034912 | 50 | 166 | 6.0 | 11.0 | 0.07 | 0.10 | 0.10 | 95 | 1010.5 |
| 20260510033842 | 50 | 161 | 5.0 | 9.0 | 0.06 | 0.09 | 0.09 | 94 | 1010.5 |
| 20260510031841 | 51 | 198 | 5.0 | 10.0 | 0.04 | 0.07 | 0.07 | 92 | 1010.7 |
| 20260510030841 | 52 | 182 | 4.0 | 9.0 | 0.03 | 0.06 | 0.06 | 91 | 1010.7 |
| 20260510025911 | 53 | 105 | 4.0 | 8.0 | 0.02 | 0.05 | 0.05 | 92 | 1010.5 |
| 20260510024841 | 54 | 256 | 3.0 | 14.0 | 0.00 | 0.03 | 0.03 | 92 | 1010.3 |
| 20260510023840 | 54 | 195 | 7.0 | 14.0 | 0.00 | 0.03 | 0.03 | 92 | 1009.7 |
| 20260510021911 | 54 | 188 | 11.0 | 18.0 | 0.00 | 0.03 | 0.03 | 92 | 1009.2 |
| 20260510015840 | 53 | 184 | 6.0 | 13.0 | 0.00 | 0.03 | 0.03 | 93 | 1009.0 |
| 20260510013910 | 52 | 178 | 5.0 | 11.0 | 0.00 | 0.03 | 0.03 | 94 | 1008.4 |
| 20260510011909 | 51 | 163 | 5.0 | 8.0 | 0.00 | 0.03 | 0.03 | 94 | 1008.6 |
| 20260510010909 | 51 | 188 | 4.0 | 6.0 | 0.00 | 0.03 | 0.03 | 94 | 1008.4 |
| 20260510005909 | 51 | 194 | 4.0 | 9.0 | 0.00 | 0.03 | 0.03 | 92 | 1008.3 |
| 20260510004909 | 52 | 156 | 6.0 | 9.0 | 0.00 | 0.03 | 0.03 | 93 | 1008.2 |
| 20260510003909 | 52 | 147 | 5.0 | 8.0 | 0.00 | 0.03 | 0.03 | 93 | 1008.1 |
| 20260510001908 | 53 | 157 | 5.0 | 14.0 | 0.00 | 0.03 | 0.03 | 91 | 1008.0 |
| 20260510000908 | 53 | 159 | 13.0 | 14.0 | 0.00 | 0.03 | 0.03 | 90 | 1008.1 |
| 20260509235908 | 54 | 202 | 4.0 | 10.0 | 0.00 | 0.03 | 0.03 | 89 | 1008.2 |
| 20260509234908 | 54 | 196 | 6.0 | 9.0 | 0.00 | 0.03 | 0.03 | 89 | 1008.1 |
| 20260509233908 | 54 | 165 | 6.0 | 9.0 | 0.00 | 0.03 | 0.03 | 88 | 1007.7 |
| 20260509232908 | 54 | 199 | 7.0 | 14.0 | 0.00 | 0.03 | 0.03 | 88 | 1007.8 |
| 20260509230907 | 56 | 207 | 6.0 | 14.0 | 0.00 | 0.03 | 0.03 | 86 | 1007.8 |
| 20260509225907 | 56 | 181 | 6.0 | 18.0 | 0.00 | 0.03 | 0.03 | 86 | 1008.0 |
| 20260509224907 | 56 | 182 | 13.0 | 17.0 | 0.00 | 0.03 | 0.03 | 85 | 1008.1 |
| 20260509223907 | 56 | 159 | 9.0 | 17.0 | 0.00 | 0.03 | 0.03 | 85 | 1007.7 |
| 20260509222907 | 56 | 198 | 9.0 | 18.0 | 0.00 | 0.03 | 0.03 | 85 | 1008.0 |
| 20260509221906 | 56 | 213 | 10.0 | 18.0 | 0.00 | 0.03 | 0.03 | 84 | 1008.0 |
| 20260509215906 | 56 | 194 | 13.0 | 16.0 | 0.00 | 0.03 | 0.03 | 86 | 1007.7 |
| 20260509214906 | 55 | 175 | 10.0 | 17.0 | 0.00 | 0.03 | 0.03 | 87 | 1007.8 |
| 20260509212906 | 55 | 181 | 9.0 | 17.0 | 0.00 | 0.03 | 0.03 | 87 | 1008.0 |
| 20260509211906 | 55 | 195 | 8.0 | 19.0 | 0.00 | 0.03 | 0.03 | 87 | 1008.0 |
| 20260509210905 | 55 | 171 | 12.0 | 20.0 | 0.00 | 0.03 | 0.03 | 87 | 1008.1 |
| 20260509205905 | 55 | 156 | 13.0 | 21.0 | 0.00 | 0.03 | 0.03 | 86 | 1008.0 |
| 20260509204905 | 55 | 184 | 8.0 | 16.0 | 0.00 | 0.03 | 0.03 | 86 | 1008.1 |
| 20260509203905 | 55 | 162 | 13.0 | 18.0 | 0.00 | 0.03 | 0.03 | 87 | 1008.1 |
| 20260509202904 | 54 | 194 | 9.0 | 17.0 | 0.00 | 0.03 | 0.03 | 88 | 1008.3 |
| 20260509200904 | 54 | 165 | 15.0 | 18.0 | 0.00 | 0.03 | 0.03 | 87 | 1008.6 |
| 20260509195904 | 54 | 193 | 13.0 | 19.0 | 0.00 | 0.03 | 0.03 | 86 | 1008.7 |
| 20260509194904 | 54 | 183 | 9.0 | 19.0 | 0.00 | 0.03 | 0.03 | 88 | 1008.7 |
| 20260509193903 | 54 | 186 | 11.0 | 17.0 | 0.00 | 0.03 | 0.03 | 86 | 1008.7 |
| 20260509192903 | 54 | 163 | 10.0 | 19.0 | 0.00 | 0.03 | 0.03 | 87 | 1008.9 |
| 20260509191903 | 55 | 152 | 11.0 | 15.0 | 0.00 | 0.03 | 0.03 | 87 | 1009.0 |
| 20260509190903 | 55 | 184 | 8.0 | 13.0 | 0.00 | 0.03 | 0.03 | 86 | 1009.3 |
| 20260509185903 | 55 | 215 | 8.0 | 17.0 | 0.00 | 0.03 | 0.03 | 86 | 1009.2 |
| 20260509183902 | 54 | 187 | 8.0 | 21.0 | 0.00 | 0.03 | 0.03 | 88 | 1009.3 |
| 20260509182902 | 54 | 175 | 13.0 | 19.0 | 0.00 | 0.03 | 0.03 | 88 | 1009.3 |
| 20260509180902 | 53 | 184 | 8.0 | 17.0 | 0.00 | 0.03 | 0.03 | 89 | 1009.1 |
| 20260509175901 | 53 | 180 | 5.0 | 14.0 | 0.00 | 0.03 | 0.03 | 90 | 1009.2 |
| 20260509174902 | 53 | 200 | 8.0 | 17.0 | 0.00 | 0.03 | 0.03 | 90 | 1009.2 |
| 20260509173901 | 52 | 175 | 10.0 | 17.0 | 0.00 | 0.03 | 0.03 | 90 | 1009.1 |
| 20260509172901 | 52 | 192 | 10.0 | 16.0 | 0.00 | 0.03 | 0.03 | 90 | 1009.2 |
| 20260509170901 | 52 | 201 | 9.0 | 14.0 | 0.00 | 0.03 | 0.03 | 90 | 1009.1 |
| 20260509165900 | 52 | 167 | 10.0 | 15.0 | 0.00 | 0.03 | 0.03 | 90 | 1009.2 |
| 20260509164900 | 52 | 171 | 8.0 | 14.0 | 0.00 | 0.03 | 0.03 | 90 | 1009.3 |
| 20260509162900 | 51 | 169 | 11.0 | 13.0 | 0.00 | 0.03 | 0.03 | 91 | 1009.6 |
| 20260509161900 | 51 | 183 | 7.0 | 14.0 | 0.00 | 0.03 | 0.03 | 92 | 1009.7 |
| 20260509154900 | 51 | 160 | 9.0 | 13.0 | 0.00 | 0.03 | 0.03 | 93 | 1009.7 |
| 20260509153859 | 50 | 197 | 11.0 | 14.0 | 0.00 | 0.03 | 0.03 | 93 | 1009.6 |
| 20260509152859 | 50 | 191 | 7.0 | 13.0 | 0.00 | 0.03 | 0.03 | 94 | 1009.9 |
| 20260509151859 | 50 | 203 | 11.0 | 11.0 | 0.00 | 0.03 | 0.03 | 94 | 1010.2 |
| 20260509150859 | 49 | 186 | 8.0 | 11.0 | 0.00 | 0.03 | 0.03 | 95 | 1010.2 |
| 20260509145858 | 49 | 171 | 5.0 | 12.0 | 0.00 | 0.03 | 0.03 | 96 | 1010.2 |
| 20260509144858 | 49 | 138 | 8.0 | 10.0 | 0.00 | 0.03 | 0.03 | 97 | 1010.0 |
| 20260509143858 | 49 | 150 | 8.0 | 8.0 | 0.00 | 0.03 | 0.03 | 97 | 1010.3 |
| 20260509142858 | 48 | 161 | 5.0 | 10.0 | 0.01 | 0.04 | 0.03 | 97 | 1010.5 |
| 20260509141858 | 49 | 163 | 7.0 | 10.0 | 0.01 | 0.04 | 0.03 | 97 | 1010.6 |
| 20260509135857 | 48 | 189 | 9.0 | 10.0 | 0.01 | 0.04 | 0.03 | 98 | 1010.6 |
| 20260509134857 | 47 | 155 | 4.0 | 10.0 | 0.01 | 0.04 | 0.03 | 97 | 1010.6 |
| 20260509132858 | 47 | 171 | 6.0 | 13.0 | 0.01 | 0.03 | 0.02 | 97 | 1010.6 |
| 20260509131857 | 47 | 165 | 10.0 | 12.0 | 0.01 | 0.03 | 0.02 | 97 | 1010.6 |
| 20260509130857 | 46 | 163 | 6.0 | 11.0 | 0.01 | 0.03 | 0.02 | 97 | 1010.6 |
| 20260509125856 | 46 | 146 | 6.0 | 11.0 | 0.02 | 0.03 | 0.02 | 97 | 1010.7 |
| 20260509124856 | 46 | 148 | 8.0 | 10.0 | 0.02 | 0.03 | 0.02 | 97 | 1010.7 |
| 20260509122856 | 46 | 133 | 3.0 | 8.0 | 0.01 | 0.02 | 0.01 | 96 | 1010.9 |
| 20260509121856 | 45 | 140 | 5.0 | 10.0 | 0.01 | 0.02 | 0.01 | 95 | 1010.8 |
| 20260509120856 | 45 | 150 | 10.0 | 10.0 | 0.01 | 0.02 | 0.01 | 95 | 1011.0 |
| 20260509115856 | 45 | 153 | 8.0 | 11.0 | 0.00 | 0.01 | 0.00 | 95 | 1011.4 |
| 20260509113855 | 45 | 146 | 8.0 | 11.0 | 0.00 | 0.01 | 0.00 | 93 | 1011.4 |
| 20260509112855 | 45 | 139 | 9.0 | 10.0 | 0.00 | 0.01 | 0.00 | 92 | 1011.3 |
| 20260509111854 | 44 | 168 | 6.0 | 9.0 | 0.00 | 0.01 | 0.00 | 92 | 1011.3 |
| 20260509110854 | 44 | 166 | 4.0 | 9.0 | 0.00 | 0.01 | 0.00 | 91 | 1011.2 |
| 20260509103853 | 43 | 177 | 3.0 | 9.0 | 0.00 | 0.02 | 0.00 | 90 | 1011.4 |
| 20260509102853 | 43 | 173 | 7.0 | 10.0 | 0.00 | 0.02 | 0.00 | 89 | 1011.4 |
| 20260509101853 | 43 | 155 | 7.0 | 12.0 | 0.00 | 0.02 | 0.00 | 88 | 1011.3 |
| 20260509095853 | 43 | 182 | 4.0 | 10.0 | 0.00 | 0.02 | 0.00 | 87 | 1011.3 |
| 20260509094853 | 43 | 183 | 6.0 | 9.0 | 0.00 | 0.02 | 0.00 | 87 | 1011.1 |
| 20260509093853 | 43 | 174 | 5.0 | 10.0 | 0.00 | 0.02 | 0.00 | 85 | 1011.1 |
| 20260509092852 | 43 | 192 | 6.0 | 10.0 | 0.00 | 0.02 | 0.00 | 84 | 1011.0 |
| 20260509091852 | 43 | 185 | 4.0 | 8.0 | 0.00 | 0.02 | 0.00 | 83 | 1011.3 |